Wind_Speed
30 31 31 31 31 32 33 34 35 35 36 35 37 38 37 37 37 38 38 38 39 39 40 40 41 42 43 43 44 46 46 47 48 50 51 52 53 53 53 52 53 54 55 56
29 29 31 31 30 31 32 33 34 34 34 34 35 36 36 37 37 37 38 39 39 39 40 40 41 42 42 43 44 45 46 47 48 49 50 51 52 52 53 54 53 53 54 55
27 27 29 30 28 28 30 31 33 34 33 34 34 34 34 35 36 37 37 38 38 39 39 40 41 41 42 43 44 44 45 46 47 48 49 50 51 52 52 53 54 54 54 54
26 26 27 25 25 25 27 28 30 32 33 33 34 35 35 35 36 36 37 38 38 39 40 41 42 42 42 43 43 44 45 46 47 48 48 49 50 50 51 52 52 53 54 55
25 26 26 23 23 25 26 27 27 29 31 32 33 34 34 35 36 36 37 37 38 39 39 39 40 41 42 42 43 43 44 45 46 47 48 48 49 49 50 50 51 52 53 54
25 26 26 24 24 24 26 25 25 27 28 29 30 33 32 34 35 36 37 37 37 38 39 39 40 40 40 41 41 42 43 44 45 46 46 47 48 48 49 50 50 51 52 53
23 24 24 23 24 24 25 24 24 25 25 27 28 30 30 32 34 35 37 37 37 38 38 40 40 40 40 40 40 41 42 43 44 45 46 46 47 48 48 49 50 50 52 52
22 22 21 22 23 24 24 24 25 26 27 27 28 28 29 30 32 33 34 35 36 37 37 38 39 39 40 39 40 40 41 41 42 43 44 45 46 47 47 48 49 50 50 51
21 20 20 22 23 24 25 26 26 27 28 28 29 29 30 30 31 31 32 33 34 35 35 36 37 38 38 38 39 40 41 41 41 42 43 44 44 46 47 48 48 48 49 49
22 21 21 22 23 23 24 25 26 27 27 28 28 29 30 30 30 31 31 32 32 33 33 33 35 36 37 38 38 38 39 39 39 40 41 42 43 44 45 46 46 47 47 48
22 22 22 22 22 22 23 24 25 25 26 27 27 27 28 29 29 30 30 30 30 30 30 31 33 34 36 36 37 37 37 38 39 40 40 41 42 43 43 44 45 45 45 46
21 21 22 22 22 23 23 24 24 25 26 27 27 27 27 27 27 27 28 28 28 28 29 30 31 32 33 34 35 35 35 37 38 39 40 41 42 43 43 43 43 43 43 43
22 22 22 22 23 23 23 23 24 24 25 25 26 26 26 26 26 26 26 27 27 27 28 29 30 31 32 32 33 34 35 36 36 37 38 39 40 41 41 42 43 43 43 43
21 22 22 22 23 23 23 23 23 23 24 24 25 25 25 26 26 26 26 27 27 28 28 28 29 30 31 31 32 33 33 34 35 36 37 37 38 38 39 39 40 41 41 41
20 21 22 22 23 23 23 23 23 23 23 23 24 24 25 25 26 26 26 27 28 28 28 29 29 29 30 30 31 31 32 33 34 34 35 35 36 36 37 37 37 37 38 38
20 21 21 22 22 23 23 23 23 23 23 23 23 23 24 25 25 26 27 27 28 28 28 28 29 29 29 30 30 31 32 32 33 33 33 33 34 34 34 34 34 34 34 35
20 20 21 22 22 23 23 23 23 23 23 23 23 23 24 24 24 24 25 25 26 27 28 28 28 29 29 30 30 31 31 32 32 32 32 32 32 32 32 32 32 32 32 33
19 19 20 21 21 22 22 22 23 23 23 23 23 23 23 24 24 24 24 24 25 25 26 27 27 28 28 29 30 31 31 32 32 32 31 31 31 31 31 31 31 31 31 32
19 20 20 21 22 22 22 23 23 22 22 23 23 23 24 25 25 24 24 24 25 25 25 26 26 27 27 28 29 30 30 30 30 30 30 30 30 30 30 30 30 30 30 31
21 21 21 21 22 22 22 22 22 22 22 23 23 23 24 25 25 25 25 25 25 25 26 26 26 26 27 28 28 29 29 29 28 28 28 29 29 29 29 29 29 30 30 31
21 21 21 22 22 22 22 22 22 22 22 22 23 23 23 24 24 24 24 25 26 26 26 26 27 27 27 28 28 28 27 27 28 28 28 28 28 28 28 28 29 29 29 30
20 21 21 21 21 20 20 21 21 21 22 22 22 22 22 23 23 23 24 24 25 25 26 27 27 27 27 27 27 26 26 27 27 27 27 27 27 27 28 28 28 29 29 28
20 21 21 20 20 19 19 20 20 21 21 21 22 22 22 22 23 23 23 24 24 24 25 25 25 26 26 25 25 25 26 26 26 26 26 27 26 26 27 27 27 27 27 27
20 20 20 20 20 19 20 20 20 21 21 21 21 22 22 23 23 24 24 24 24 24 24 25 24 24 24 24 24 24 24 24 25 25 26 26 26 26 26 26 26 26 26 26
20 20 20 20 20 20 20 20 20 21 21 21 22 22 23 24 24 24 25 25 25 25 24 24 24 24 24 24 24 24 24 25 25 25 25 25 26 26 26 26 26 26 26 26
20 20 20 20 20 20 20 20 21 21 22 22 23 24 24 25 25 25 25 25 25 25 25 24 25 25 25 25 25 25 25 25 25 25 26 26 26 25 25 25 26 25 25 25
21 20 20 20 20 21 21 22 22 23 23 24 24 25 25 25 26 26 26 26 26 25 25 25 25 25 25 25 25 25 26 26 26 26 26 26 25 25 25 25 25 25 25 25
Wind_Direction
268 267 266 265 262 260 258 256 257 257 257 258 259 260 260 260 259 259 259 259 258 257 255 254 253 252 252 252 252 252 252 252 253 254 254 254 255 255 256 257 259 260 259 259
269 268 267 266 264 262 259 257 256 257 257 257 260 260 260 260 259 259 259 260 260 259 258 256 255 254 253 254 254 254 254 253 254 255 256 256 256 257 257 258 259 260 260 260
272 270 268 267 267 265 261 258 257 257 258 258 260 259 259 259 260 260 260 260 260 259 259 258 257 255 255 255 255 255 255 255 256 256 257 257 258 258 258 259 259 259 260 261
274 270 269 268 265 264 262 260 259 258 259 260 261 260 259 259 259 260 260 261 261 260 259 259 258 258 257 256 256 256 256 256 257 257 258 258 259 259 259 259 260 260 261 261
274 271 269 265 264 264 264 263 261 260 259 261 261 261 260 260 261 262 262 262 262 261 259 258 258 258 258 258 257 257 257 257 257 257 257 258 259 260 260 260 260 261 261 262
275 272 270 267 265 266 267 267 265 263 263 263 262 263 262 261 262 263 263 264 263 262 259 258 258 258 259 259 259 258 258 258 258 258 258 259 260 260 261 261 262 263 263 264
275 274 272 268 267 267 269 270 269 267 266 266 265 265 264 263 264 264 265 265 265 264 262 260 259 258 259 259 259 259 259 259 259 259 259 260 260 261 262 263 263 264 265 265
277 275 275 270 269 270 271 270 271 271 269 269 268 268 268 267 267 267 267 266 266 265 264 261 259 259 259 259 259 260 260 260 260 260 260 260 261 262 263 264 265 266 267 268
279 279 276 274 275 275 273 273 272 272 271 271 271 271 270 269 269 269 269 268 267 266 264 261 260 260 260 261 261 261 261 261 261 261 261 262 263 264 265 266 267 268 268 269
277 276 276 277 278 278 277 276 275 274 273 273 273 272 272 271 270 271 270 270 268 266 264 262 261 262 262 262 263 263 263 262 262 263 263 264 265 266 267 268 268 268 269 270
277 277 277 278 278 278 277 277 277 277 277 275 274 274 273 272 272 272 271 270 269 267 265 264 263 264 264 264 264 264 264 264 265 265 265 266 266 267 268 268 269 270 270 271
278 279 280 281 280 280 279 279 279 279 279 278 277 275 274 274 274 273 271 269 268 268 268 268 267 267 266 266 266 266 266 267 267 267 267 267 267 268 269 270 270 271 272 272
278 279 281 283 283 282 283 283 283 282 281 279 278 276 275 275 274 274 271 269 269 269 269 269 269 269 269 268 267 267 268 268 268 268 268 268 269 269 270 271 272 272 273 273
280 280 281 283 284 284 284 285 286 286 284 281 279 278 276 276 274 274 273 271 270 270 271 271 271 271 271 270 269 269 269 269 269 269 269 269 270 271 271 272 272 272 272 273
284 284 283 284 284 285 285 286 287 287 285 283 281 279 278 278 276 275 274 274 273 272 272 272 272 272 271 271 271 270 270 270 270 271 270 270 270 272 273 273 273 272 272 272
286 286 286 287 288 287 287 287 287 287 285 284 282 280 280 279 279 279 277 276 275 274 274 274 273 273 272 271 271 271 272 272 272 272 271 271 271 273 274 274 274 273 273 272
289 288 289 290 290 289 288 287 286 286 286 285 283 282 281 280 280 281 280 279 277 276 275 275 275 275 274 273 273 274 274 274 274 273 273 272 273 273 274 274 274 274 273 273
290 290 291 292 292 292 291 289 287 286 286 286 284 283 282 282 283 283 282 281 280 279 278 277 277 276 275 275 275 275 275 275 275 274 273 273 274 273 273 273 273 274 275 275
290 290 291 292 293 293 293 292 290 288 287 287 286 285 285 284 284 283 282 282 283 282 281 280 279 278 277 276 277 277 276 276 275 274 273 274 274 273 274 274 275 276 276 276
291 290 291 293 293 293 293 292 292 290 290 289 289 288 287 286 285 284 283 284 284 283 282 282 281 280 279 279 279 279 278 277 276 276 275 276 276 276 276 276 277 277 277 278
293 293 294 295 295 294 293 293 292 292 293 291 291 291 291 290 288 287 285 284 284 283 282 282 282 282 281 281 281 280 279 277 277 277 277 277 277 277 277 278 279 279 279 280
295 295 296 297 297 296 296 295 295 294 294 294 294 294 293 292 292 290 289 287 286 284 284 283 283 283 282 282 281 279 278 278 278 277 277 278 278 278 278 279 280 280 280 281
299 298 298 298 297 297 297 298 298 297 296 296 296 296 295 295 294 293 292 290 289 288 287 286 285 285 284 282 281 280 280 280 279 277 277 278 278 278 279 280 280 281 281 282
301 301 301 300 299 299 300 300 300 298 298 298 298 298 297 297 296 294 293 292 292 291 289 288 287 286 284 283 282 282 281 281 279 278 278 278 278 279 279 280 280 281 282 283
303 303 302 301 300 300 300 301 301 300 300 300 300 300 299 299 298 295 294 293 293 291 290 288 287 285 284 284 283 282 282 281 280 279 279 279 279 279 278 279 280 282 283 284
303 302 301 301 300 300 300 300 301 301 301 300 299 299 300 300 299 297 295 294 293 291 288 286 286 285 284 285 284 283 283 282 280 279 279 280 280 278 278 279 280 282 283 283
302 301 301 300 300 300 300 300 300 300 301 301 301 300 300 300 300 299 298 296 294 291 289 287 286 285 285 285 284 284 283 282 281 281 281 280 279 278 278 279 279 280 281 282
Height
5517 5517 5517 5518 5519 5519 5519 5520 5521 5523 5524 5526 5527 5528 5529 5531 5532 5533 5534 5535 5536 5538 5539 5540 5542 5544 5545 5547 5549 5551 5553 5555 5557 5559 5561 5563 5565 5566 5568 5570 5571 5572 5574 5575
5508 5508 5507 5507 5508 5509 5509 5510 5511 5512 5514 5516 5516 5517 5518 5519 5520 5521 5522 5523 5524 5525 5527 5528 5529 5531 5533 5535 5536 5538 5540 5542 5544 5546 5547 5549 5550 5552 5554 5555 5556 5558 5559 5560
5499 5498 5497 5498 5500 5499 5499 5500 5502 5503 5506 5505 5506 5506 5507 5508 5509 5510 5510 5511 5512 5513 5514 5516 5517 5518 5520 5522 5523 5525 5527 5528 5530 5532 5533 5535 5536 5538 5539 5540 5541 5542 5543 5544
5490 5490 5489 5493 5491 5491 5490 5491 5492 5493 5494 5495 5495 5495 5496 5497 5498 5498 5499 5500 5500 5501 5502 5504 5504 5506 5507 5509 5510 5512 5513 5515 5516 5518 5519 5521 5522 5523 5524 5525 5526 5527 5528 5529
5482 5481 5481 5483 5483 5482 5482 5483 5484 5484 5484 5484 5484 5485 5487 5487 5487 5487 5488 5488 5489 5490 5490 5491 5492 5493 5495 5496 5498 5499 5500 5501 5503 5504 5505 5506 5507 5508 5509 5509 5510 5511 5512 5513
5474 5473 5473 5477 5476 5474 5474 5475 5476 5474 5475 5475 5474 5475 5478 5477 5476 5476 5477 5477 5477 5478 5479 5480 5481 5481 5483 5484 5485 5486 5487 5488 5489 5490 5491 5492 5493 5494 5494 5494 5495 5496 5496 5497
5467 5465 5466 5468 5467 5466 5468 5469 5468 5466 5466 5465 5465 5466 5467 5466 5466 5466 5466 5466 5466 5466 5467 5468 5469 5470 5471 5472 5473 5473 5474 5475 5476 5476 5477 5478 5478 5479 5479 5479 5480 5480 5481 5481
5461 5459 5462 5460 5459 5459 5460 5459 5458 5457 5457 5456 5456 5456 5456 5456 5455 5455 5455 5455 5455 5454 5455 5455 5456 5457 5459 5460 5460 5461 5461 5462 5463 5463 5463 5464 5464 5464 5464 5465 5465 5465 5465 5465
5455 5456 5455 5453 5452 5452 5451 5450 5449 5449 5448 5448 5447 5447 5446 5446 5446 5445 5445 5444 5444 5444 5444 5445 5445 5445 5447 5448 5448 5448 5449 5450 5450 5450 5450 5450 5450 5451 5451 5450 5450 5450 5450 5450
5448 5448 5447 5446 5445 5444 5443 5442 5441 5440 5439 5439 5438 5437 5437 5436 5436 5435 5435 5434 5433 5433 5433 5434 5434 5434 5435 5436 5437 5437 5437 5437 5437 5437 5437 5437 5437 5437 5437 5436 5436 5436 5435 5435
5441 5441 5440 5439 5438 5436 5435 5434 5432 5431 5430 5429 5429 5428 5427 5427 5426 5425 5425 5424 5423 5423 5423 5424 5424 5424 5424 5424 5425 5425 5425 5425 5425 5425 5425 5425 5424 5424 5423 5423 5422 5422 5421 5421
5435 5434 5432 5432 5430 5429 5427 5426 5424 5423 5422 5421 5420 5419 5418 5417 5416 5416 5415 5415 5414 5414 5414 5414 5414 5413 5413 5413 5413 5413 5413 5413 5413 5413 5412 5412 5411 5411 5410 5410 5409 5408 5407 5407
5427 5426 5424 5423 5422 5421 5419 5418 5416 5415 5414 5412 5411 5410 5409 5408 5407 5406 5406 5405 5405 5405 5404 5404 5404 5403 5403 5403 5402 5402 5402 5401 5401 5401 5400 5399 5399 5398 5398 5397 5395 5394 5394 5393
5419 5418 5417 5416 5415 5414 5412 5410 5409 5407 5405 5404 5403 5401 5400 5399 5398 5398 5397 5396 5396 5396 5395 5395 5394 5393 5393 5392 5392 5391 5390 5390 5389 5389 5388 5387 5387 5386 5385 5384 5383 5382 5381 5380
5413 5411 5410 5409 5408 5406 5405 5403 5401 5400 5398 5396 5395 5393 5392 5391 5390 5389 5388 5387 5387 5386 5386 5385 5384 5384 5383 5382 5381 5380 5379 5379 5378 5377 5377 5376 5375 5374 5373 5372 5370 5369 5368 5367
5406 5405 5403 5402 5401 5399 5397 5396 5394 5392 5390 5388 5387 5385 5384 5383 5381 5380 5379 5378 5377 5377 5376 5375 5375 5374 5373 5372 5371 5370 5369 5368 5367 5366 5366 5365 5364 5362 5361 5360 5359 5358 5357 5356
5400 5399 5397 5395 5394 5392 5390 5388 5386 5385 5383 5381 5379 5378 5376 5375 5373 5372 5370 5369 5368 5367 5366 5366 5365 5364 5363 5362 5361 5360 5359 5358 5357 5356 5355 5354 5353 5352 5351 5349 5348 5347 5346 5345
5394 5392 5390 5388 5386 5384 5382 5381 5379 5377 5375 5374 5372 5370 5368 5367 5365 5364 5362 5361 5360 5359 5357 5356 5355 5354 5353 5352 5351 5350 5349 5348 5347 5345 5344 5343 5342 5341 5340 5339 5338 5337 5336 5334
5387 5386 5384 5382 5380 5377 5375 5373 5372 5370 5368 5366 5364 5363 5361 5359 5357 5356 5354 5353 5352 5350 5349 5348 5346 5345 5344 5343 5341 5340 5339 5338 5336 5335 5334 5333 5332 5331 5330 5329 5328 5327 5325 5324
5381 5379 5377 5375 5373 5371 5369 5367 5365 5363 5361 5359 5357 5355 5353 5351 5349 5347 5346 5345 5343 5342 5340 5339 5337 5336 5335 5333 5332 5330 5329 5328 5327 5326 5325 5324 5322 5321 5320 5319 5318 5317 5315 5314
5375 5373 5371 5369 5366 5364 5362 5360 5358 5356 5354 5352 5350 5347 5345 5343 5341 5339 5338 5336 5335 5333 5332 5330 5329 5327 5326 5324 5323 5321 5320 5318 5317 5316 5315 5314 5313 5312 5310 5309 5308 5307 5306 5304
5368 5366 5364 5362 5360 5358 5355 5353 5351 5349 5347 5344 5342 5340 5338 5336 5334 5331 5330 5328 5326 5325 5323 5321 5320 5318 5316 5315 5313 5312 5311 5309 5308 5307 5306 5305 5303 5302 5301 5300 5298 5297 5296 5294
5362 5360 5358 5356 5353 5351 5349 5347 5344 5342 5340 5338 5335 5333 5331 5328 5326 5324 5322 5320 5318 5316 5314 5313 5311 5309 5307 5306 5305 5303 5302 5300 5299 5298 5297 5295 5294 5293 5292 5290 5289 5288 5286 5285
5356 5354 5352 5349 5347 5345 5343 5341 5338 5336 5333 5331 5328 5326 5324 5321 5319 5316 5314 5312 5310 5308 5306 5304 5302 5301 5299 5298 5296 5295 5293 5292 5290 5289 5288 5287 5285 5284 5283 5281 5280 5279 5277 5276
5350 5348 5345 5343 5341 5339 5337 5334 5332 5329 5327 5324 5322 5319 5316 5314 5311 5309 5306 5304 5301 5299 5297 5296 5294 5292 5291 5289 5288 5286 5285 5283 5282 5281 5279 5278 5277 5275 5274 5273 5272 5270 5269 5267
5344 5342 5339 5337 5335 5333 5330 5328 5325 5323 5320 5317 5315 5312 5309 5306 5303 5300 5298 5295 5293 5291 5289 5287 5285 5284 5282 5281 5279 5278 5276 5275 5273 5272 5271 5269 5268 5266 5265 5264 5263 5261 5260 5258
5338 5335 5333 5331 5328 5326 5324 5321 5318 5316 5313 5310 5307 5304 5301 5298 5295 5292 5289 5287 5284 5282 5280 5278 5277 5275 5274 5272 5270 5269 5267 5266 5264 5263 5261 5260 5259 5257 5256 5255 5254 5252 5251 5249